Regional Weather Roundup
Issued by NWS Sterling, VA

Home | Current Version | Previous Version | Graphics & Text | Print | Product List | Glossary On
Versions: 1 2 3 4 5 6 7 8 9 10 11 12 13 14 15 16 17 18 19 20 21 22 23 24 25 26 27 28 29 30 31 32 33 34 35 36 37 38 39 40 41 42 43 44 45 46 47 48 49 50
000
ASUS41 KLWX 251310
RWRLWX

REGIONAL WEATHER ROUNDUP
NATIONAL WEATHER SERVICE BALTIMORE MD/WASHINGTON DC
900 AM EDT SAT MAR 25 2017

Note: "FAIR" indicates few or no clouds below 12,000 feet
with no significant weather and/or obstructions to visibility.
 TC=TEMPERATURE CELSIUS

 * =Non NWS site. Station does not report precipitation (e.g. rain,
    snow, etc.), thunder, or fog.

DCZ001-MDZ009-015-VAZ040>042-051-053>054-251400-
WASHINGTON METRO

CITY           SKY/WX    TMP DP  RH WIND       PRES   REMARKS
WASHINGTON NAT CLOUDY    59  49  69 S9        30.21R
DULLES         CLOUDY    59  47  64 S8        30.20R
ANDREWS AFB    CLOUDY    62  47  59 SW13      30.19S
FT BELVOIR     MOSUNNY   62  47  59 VRB3      30.20R
QUANTICO       CLOUDY    55  49  80 SW7       30.23R
COLLEGE PARK*  MOSUNNY   59  46  63 CALM      30.19S
LEESBURG*      CLOUDY    59  52  77 CALM      30.20S
MANASSAS*      CLOUDY    60  49  66 SW6       30.21R

$$

MDZ006>007-011-014-251400-
BALTIMORE METRO

CITY           SKY/WX    TMP DP  RH WIND       PRES   REMARKS
BWI AIRPORT    CLOUDY    61  49  64 SW8       30.18R
MD SCIENCE CTR   N/A     61  46  57 MISG      30.20R
ANNAPOLIS      MOSUNNY   64  48  56 W9G17     30.19R
FORT MEADE*    CLOUDY    61  46  59 SW6       30.21S

$$

MDZ012-015-019>023-251400-
MARYLAND EASTERN SHORE

CITY           SKY/WX    TMP DP  RH WIND       PRES   REMARKS
OCEAN CITY     MOSUNNY   61  49  64 SW12      30.23R
SALISBURY      CLOUDY    59  50  72 SW10      30.23R
BAY BRIDGE AP* CLOUDY    61  48  63 SW5       30.19S
CAMBRIDGE*     SUNNY     59  48  67 VRB6      30.22R
EASTON*        MOSUNNY   61  48  63 SW9       30.24R

$$

MDZ017>025-251400-
SOUTHERN MARYLAND

CITY           SKY/WX    TMP DP  RH WIND       PRES   REMARKS
PATUXENT RIVER CLOUDY    61  51  70 SW13      30.22R
ST INIGOES     CLOUDY    59  49  69 SW7       30.23R
LEONARDTOWN*   CLOUDY    61  46  59 SW9       30.23S

$$

MDZ003>005-251400-
NORTH CENTRAL MARYLAND

CITY           SKY/WX    TMP DP  RH WIND       PRES   REMARKS
FREDERICK*     SUNNY     57  52  82 CALM      30.21R
HAGERSTOWN APT CLOUDY    59  48  67 S9        30.17R
WESTMINSTER*   PTSUNNY   61  48  63 SW7       30.17S

$$

MDZ501>502-251400-
WESTERN MARYLAND

CITY           SKY/WX    TMP DP  RH WIND       PRES   REMARKS
OAKLAND*       CLOUDY    54  45  71 W9G16     30.23S
CUMBERLAND*    CLOUDY    59  50  72 CALM      30.22R

$$

VAZ025>031-251400-
SHENANDOAH VALLEY

CITY           SKY/WX    TMP DP  RH WIND       PRES   REMARKS
WINCHESTER*    MOSUNNY   59  46  63 SW7       30.19S
FRONT ROYAL*   MOSUNNY   63  48  59 S7        30.19R
LURAY*         CLOUDY    61  50  67 SW7       30.21S
NEW MARKET*    CLOUDY    58  47  67 W3        30.21S
STAUNTON*      CLOUDY    58  47  67 S5        30.24S
WAYNESBORO*    CLOUDY    60  49  66 SW5       30.24R

$$

WVZ021-048>050-054>055-251400-
EASTERN WEST VIRGINIA PANHANDLE

CITY           SKY/WX    TMP DP  RH WIND       PRES   REMARKS
MARTINSBURG    CLOUDY    61  48  62 S6        30.17R
PETERSBURG*    CLOUDY    61  52  71 CALM      30.20S

$$

VAZ036>039-050-251400-
CENTRAL FOOTHILLS

CITY           SKY/WX    TMP DP  RH WIND       PRES   REMARKS
CHARLOTTESVILL CLOUDY    60  48  64 SW7       30.22R
CULPEPER*      CLOUDY    60  49  68 CALM      30.22S
ORANGE*        CLOUDY    59  46  63 S9        30.23S
GORDONSVILLE*  PTSUNNY   59  49  68 SW7       30.22S
WARRENTON*     CLOUDY    61  46  56 SW6       30.21S

$$

VAZ055>057-251400-
NORTH AND CENTRAL PIEDMONT

CITY           SKY/WX    TMP DP  RH WIND       PRES   REMARKS
FREDERICKSBRG* CLOUDY    61  50  65 SW6       30.22R
STAFFORD*      CLOUDY    61  49  64 SW9       30.26R

$$

NCZ024-NYZ072-PAZ021-071-VAZ022-071-251400-
OTHER REGIONAL OBSERVATIONS

CITY           SKY/WX    TMP DP  RH WIND       PRES   REMARKS
NEW YORK CITY  CLOUDY    55  38  52 CALM      30.18R
PHILADELPHIA   CLOUDY    56  46  69 SW13      30.17R
PITTSBURGH     CLOUDY    63  51  65 SW9       30.16R
ROANOKE        MOSUNNY   58  46  64 CALM      30.28S
RICHMOND       CLOUDY    61  50  67 SW13      30.26S
RALEIGH        PTSUNNY   59  52  77 SW8       30.35R

$$

ANZ530>537-251400-
MARINE OBSERVATIONS

STATION/POSITION TIME  TEMP    WIND        PRES
                       AIR SEA DIR/SP/G
                 (UTC) (F)     (DEG/KT/KT) (MB)
THOMAS PT LIGHT  1300   60 44  240/ 11/ 11   N/A
BALT KEY BRIDGE  1248   59     240/  4/  5 1022.1R
COVE POINT       1248   61     270/ 22/ 29 1022.9R
LEWISETTA        1248   60 48  240/ 15/ 20 1023.3R
SOLOMONS ISLAND  1242   60 46  240/  7/ 12   N/A
PINEY POINT      1242          270/  6/  8   N/A

$$




USA.gov is the U.S. government's official web portal to all federal, state and local government web resources and services.